星链-32026 (STARLINK-32026 )

导读

STARLINK-32026是美国太空探索技术公司SpaceX星链互联网卫星星座的一员,于2024年6月23日发射升空。星链项目旨在构建全球卫星互联网系统,为偏远地区等提供宽带接入服务,该卫星入轨后将参与星座组网,补充提升星座的覆盖能力与通信服务性能。

Basic Information
目录编号:
60098
目录名称:
STARLINK-32026
国际标识:
2024-117H
轨道中心:
EARTH
卫星名称:
星链-32026
卫星全名:
星链-32026 (STARLINK-32026 )
卫星状态:
在轨 (已飞行803 天)
发射日期:
2024-06-23 UTC
国别 :
美国 (US)
星等 :
--
Orbit Information
数据来源 国际轨道数据
星历时间: 2026-09-04T10:40:11+0800
6小时前
查看轨道信息
半长轴: 6840.884km
偏心率: 0.0001027
轨道倾角: 53.159°
近地点辐角 82.142°
升交点赤经 286.248°
平近点角 277.970°
近地点: 462.044km
远地点: 463.45km
周期: 93.849分钟
每日圈数: 15.343855
Detailed Information
固有亮度:
5
最大亮度:
1.5
卫星平台:
Starlink v2.0 mini
覆盖范围:
全球
运营商:
太空探索技术公司
运营商所在国:
美国
制造商(研发单位):
太空探索技术公司
制造商所在国:
美国
使用方式:
暂无
Satellite Introduction
星链(Starlink)计划是由太空探索技术公司(SpaceX)提出的一个巨型低轨卫星互联网星座项目,计划在2019年至2024年间在太空搭建由约1.2万颗卫星组成的“星链”网络,其中1584颗将部署在地球上空550千米处的近地轨道,并从2020年开始工作。该卫星仍在工作。
2D Orbit Map
3D Orbit Map
Orbit Altitude Analysis Chart
Orbit Inclination Analysis Chart
Orbit Comprehensive Analysis Chart
View Comprehensive Chart
Conjunction Data List
Event ID Objects TCA Miss Dist (km) Collision Risk Probability Collision Risk Index (CRI) Action
CDM_260905-100106-009806-476121
2026-09-05T
10:01:14+0000
1.053 km
极远距离
1.954166E-5 中风险 0.61
CDM_260905-132006-009806-277321
2026-09-05T
13:20:35+0000
1.159 km
极远距离
1.008905E-5 中风险 0.55
CDM_260905-082706-009806-476121
2026-09-05T
08:27:26+0000
1.343 km
极远距离
8.400559E-6 低风险 0.53
CDM_260904-125404-941306-009823
2026-09-04T
12:54:29+0000
2.667 km
极远距离
1.392682E-6 低风险 0.38
CDM_260905-114606-009806-277321
2026-09-05T
11:46:47+0000
2.288 km
极远距离
1.390226E-6 低风险 0.38